GW2873 Weather Reports


time (UTC)temp
C
wind
direction
speed
KPH
gust
KPH
rain 1hr
cm
rain 24hr
cm
rain mn
cm
humidity
%
barometer
mb
20260506211557 8 319 3.2 12.9 0.05 1.47 1.47 96 1007.4
20260506210120 9 281 3.2 12.9 0.05 1.47 1.47 96 1007.3
20260506204555 10 314 1.6 9.7 0.05 1.47 1.47 95 1007.0
20260506203142 10 324 3.2 12.9 0.03 1.45 1.45 93 1006.7
20260506201556 12 284 6.4 17.7 0.03 1.45 1.45 92 1006.4
20260506200058 13 171 1.6 14.5 0.00 1.42 1.42 96 1006.0
20260506194555 13 165 3.2 11.3 0.00 1.42 1.42 96 1006.2
20260506193057 13 152 1.6 20.9 0.00 1.42 1.42 96 1006.2
20260506191604 13 0 3.2 14.5 0.00 1.42 1.42 96 1006.3
20260506190058 13 170 3.2 19.3 0.00 1.42 1.42 96 1006.4
20260506184601 13 137 6.4 19.3 0.00 1.42 1.42 95 1006.4
20260506183058 13 310 3.2 22.5 0.03 1.42 1.42 96 1006.5
20260506181600 13 159 1.6 12.9 0.05 1.42 1.42 96 1006.6
20260506180058 13 131 4.8 16.1 0.08 1.42 1.42 96 1006.6
20260506174609 13 194 6.4 19.3 0.10 1.42 1.42 97 1006.6
20260506173058 12 155 3.2 14.5 0.10 1.40 1.40 97 1006.7
20260506171602 12 171 1.6 12.9 0.10 1.37 1.37 97 1006.8
20260506170104 12 171 3.2 17.7 0.15 1.32 1.32 96 1006.9
20260506164559 12 225 3.2 12.9 0.20 1.32 1.32 96 1006.9
20260506163126 12 350 4.8 22.5 0.30 1.30 1.30 96 1007.0
20260506161559 12 107 3.2 17.7 0.36 1.27 1.27 97 1006.9
20260506160056 12 205 3.2 14.5 0.38 1.19 1.19 97 1007.3
20260506154558 12 200 3.2 24.1 0.36 1.12 1.12 96 1007.4
20260506153126 12 5 4.8 16.1 0.25 0.99 0.99 97 1007.3
20260506151556 12 138 3.2 17.7 0.20 0.91 0.91 96 1007.1
20260506150057 12 203 1.6 12.9 0.18 0.81 0.81 97 1007.1
20260506144557 12 157 4.8 14.5 0.20 0.76 0.76 96 1007.1
20260506143056 12 136 3.2 11.3 0.25 0.74 0.74 97 1006.9
20260506141555 12 149 1.6 8.0 0.28 0.69 0.69 97 1007.4
20260506140054 11 143 4.8 16.1 0.33 0.64 0.64 96 1007.5
20260506134556 11 53 1.6 17.7 0.30 0.56 0.56 97 1008.0
20260506133055 11 195 0.0 4.8 0.25 0.48 0.48 96 1008.2
20260506131607 11 0 0.0 1.6 0.20 0.41 0.41 96 1008.5
20260506130057 11 0 0.0 3.2 0.13 0.30 0.30 95 1008.3
20260506124601 11 0 0.0 1.6 0.10 0.25 0.25 96 1007.8
20260506123112 11 0 0.0 1.6 0.13 0.23 0.23 96 1007.9
20260506121612 11 0 0.0 0.0 0.15 0.20 0.20 95 1008.0
20260506120058 11 0 0.0 0.0 0.15 0.18 0.18 95 1008.3
20260506114554 11 0 0.0 0.0 0.13 0.15 0.15 94 1008.2
20260506113056 11 241 0.0 0.0 0.08 0.10 0.10 92 1008.3
20260506111558 11 0 0.0 1.6 0.05 0.05 0.05 91 1008.5
20260506110103 12 0 0.0 3.2 0.03 0.03 0.03 88 1008.3
20260506104606 12 242 0.0 3.2 0.03 0.03 0.03 84 1008.0
20260506103103 13 0 0.0 3.2 0.03 0.03 0.03 79 1007.9
20260506101625 13 136 0.0 3.2 0.00 0.00 0.00 75 1007.8
20260506100059 14 184 1.6 11.3 0.00 0.00 0.00 70 1007.8
20260506094600 15 0 1.6 4.8 0.00 0.00 0.00 67 1007.8
20260506093100 15 207 1.6 9.7 0.00 0.00 0.00 65 1007.6
20260506091558 15 0 0.0 6.4 0.00 0.00 0.00 64 1007.8
20260506090109 15 0 1.6 11.3 0.00 0.00 0.00 63 1007.8
20260506084620 15 221 1.6 6.4 0.00 0.00 0.00 62 1007.9
20260506083058 15 156 0.0 9.7 0.00 0.00 0.00 62 1007.9
20260506081613 15 192 1.6 8.0 0.00 0.00 0.00 61 1007.7
20260506073101 15 155 3.2 11.3 0.00 0.00 0.00 63 1008.1
20260506071555 15 195 3.2 11.3 0.00 0.00 0.00 64 1008.3
20260506061559 11 0 0.0 0.0 0.00 0.00 0.00 96 1008.7
20260506050117 11 0 0.0 3.2 0.00 0.00 0.00 93 1009.4
20260506044555 11 0 0.0 3.2 0.00 0.00 0.00 90 1009.5
20260506043058 12 0 0.0 1.6 0.00 0.00 0.00 90 1009.6
20260506041604 12 296 0.0 1.6 0.00 0.00 0.00 88 1009.8
20260506040058 13 0 0.0 0.0 0.00 0.00 0.00 86 1009.8
20260506034556 13 0 0.0 4.8 0.00 0.00 0.00 83 1009.8
20260506033057 13 0 0.0 3.2 0.00 0.00 0.00 79 1009.7
20260506031554 13 263 0.0 3.2 0.00 0.00 0.00 79 1009.6
20260506030057 14 232 0.0 3.2 0.00 0.00 0.00 78 1009.6
20260506024603 15 0 1.6 4.8 0.00 0.00 0.00 78 1009.5
20260506023108 15 304 0.0 4.8 0.00 0.00 0.00 76 1009.6
20260506021557 16 304 0.0 4.8 0.00 0.00 0.00 73 1009.6
20260506014603 15 262 0.0 3.2 0.00 0.00 0.00 76 1009.4
20260506013103 15 0 0.0 3.2 0.00 0.00 0.00 75 1009.4
20260506011605 15 0 0.0 0.0 0.00 0.00 0.00 76 1009.1
20260506010057 15 0 0.0 1.6 0.00 0.00 0.00 76 1009.0
20260506004601 15 0 0.0 1.6 0.00 0.00 0.00 78 1008.9
20260506003058 15 0 0.0 3.2 0.00 0.00 0.00 80 1008.9
20260506001559 15 0 0.0 3.2 0.00 0.00 0.00 81 1009.1
20260505234555 16 0 0.0 1.6 0.00 0.00 0.00 81 1008.7
20260505233058 16 0 0.0 1.6 0.00 0.00 0.00 79 1008.8
20260505231557 16 0 0.0 3.2 0.00 0.00 0.00 79 1008.6
20260505230120 17 162 4.8 16.1 0.00 0.00 0.00 75 1008.6
20260505224555 16 136 0.0 4.8 0.00 0.00 0.00 72 1008.0
20260505223059 16 0 0.0 3.2 0.00 0.00 0.00 78 1008.1
20260505221602 16 0 0.0 4.8 0.00 0.00 0.00 77 1007.9
20260505220104 16 194 0.0 6.4 0.00 0.00 0.00 76 1008.0
20260505214557 17 178 1.6 4.8 0.00 0.00 0.00 77 1008.0
20260505213056 17 309 3.2 8.0 0.00 0.00 0.00 76 1007.9